Location: McFarlands Corners
(41.4117°N, 81.3382°W)
Time: 13:13:12
(UTC+00:00)

A-11 Canister half - Pass Details

Date: 16 February 2026
Orbit: 1525 x 1683 km, 47.3° (Epoch: 11 March)

Event Time Altitude Azimuth Distance (km) Brightness Sun altitude
Rises 02:08:45 0° 286° (WNW) 4,679 12.5 -35.9°
Reaches altitude 10° 02:11:50 10° 289° (WNW) 3,693 11.8 -36.4°
Enters shadow 02:20:43 65° 359° (N) 1,662 9.0 -38.0°
Maximum altitude 02:21:05 65° 11° (N) 1,657 - -38.1°
Drops below altitude 10° 02:30:26 10° 93° (E) 3,739 - -39.7°
Sets 02:33:35 0° 96° (E) 4,740 - -40.3°
